map of NQN home
Great Circle Mapper logo
NQN - Airport
Location
City:  Neuquén, Neuquén, Argentina
Name:Presidente Perón
ICAO / IATA:SAZN / NQN

Details
Type:Airport (Aerodrome, Airfield)
Use:Public/Civil
Latitude:38°56'56"S (-38.948999)
Longitude:68°09'21"W (-68.155710)
Datum:WGS 1984
Elevation:895 ft (273 m)
Variation:3.1°E (WMM2010 magnetic declination)
Runways:1
Longest:8432 × 147 ft (2570 × 45 m), paved

Time
Time Zone:UTC-3
Local Time:

Weather
METAR:SAZN 271500Z 05003KT CAVOK 24/01 Q1011
TAF:SAZN 271100Z 2712/2812 09005KT CAVOK TX32/2719Z TN12/2810Z
BECMG 2714/2416 34010KT
BECMG 2718/2720 27020KT 9999 SCT040 OVC100 2800/2802 23015KT
BECMG 2808/2810 23010KT CAVOK

Related Locations
Nearby:
Farthest:TYN: 12339 mi / 19857 km
Taiyuan [Taiyuan Wusu Intl], Shanxi, CN

Find:

   beyond  
but within

Other Information
Maps:
NOTAMs:
Links:
Sources:

  
flag of Argentina
flag of Neuquén
  

Sectional Chart

Flight Planning
at skyvector.com

Satellite Image

Google Maps Satellite View

 

Copyright © 2004-2014 Karl L. Swartz. All rights reserved.
The Great Circle Mapper name and logo are trademarks of the Great Circle Mapper.
All other trademarks mentioned herein belong to their respective owners.
Please see credits for attibutions and further copyright information.

  Follow gcmap on Facebook Follow gcmap on Twitter

hCard Microformat

Geo Microformat